Time,TemperatureF,DewpointF,PressureIn,WindDirection,WindDirectionDegrees,WindSpeedMPH,WindSpeedGustMPH,Humidity,HourlyPrecipIn,Conditions,Clouds,dailyrainin,SolarRadiationWatts/m^2,SoftwareType,DateUTC
2013-01-15 00:00:00,60.1,53.6,29.73,SE,135,9.0,-999.0,79,0.00,,,0.00,0,Wunderground v.1.15,2013-01-15 06:00:00,
2013-01-15 00:05:00,60.1,53.6,29.73,SE,135,9.0,-999.0,79,0.00,,,0.00,0,Wunderground v.1.15,2013-01-15 06:05:00,
2013-01-15 00:10:00,60.2,53.3,29.74,SE,135,12.0,-999.0,78,0.00,,,0.00,0,Wunderground v.1.15,2013-01-15 06:10:00,
2013-01-15 00:15:00,60.3,53.1,29.74,SE,135,11.0,-999.0,77,0.00,,,0.00,0,Wunderground v.1.15,2013-01-15 06:15:00,
2013-01-15 00:20:00,60.4,53.2,29.74,SE,135,8.0,-999.0,77,0.00,,,0.00,0,Wunderground v.1.15,2013-01-15 06:20:00,
2013-01-15 00:25:00,60.4,52.8,29.74,SE,135,10.0,-999.0,76,0.00,,,0.00,0,Wunderground v.1.15,2013-01-15 06:25:00,
2013-01-15 00:30:00,60.7,53.1,29.74,SE,135,9.0,-999.0,76,0.00,,,0.00,0,Wunderground v.1.15,2013-01-15 06:30:00,
2013-01-15 00:35:00,60.7,53.1,29.74,ENE,68,5.0,-999.0,76,0.00,,,0.00,0,Wunderground v.1.15,2013-01-15 06:35:00,
2013-01-15 00:40:00,60.8,53.2,29.73,ESE,113,6.0,-999.0,76,0.00,,,0.00,0,Wunderground v.1.15,2013-01-15 06:40:00,
2013-01-15 00:45:00,60.7,53.4,29.73,SE,135,3.0,-999.0,77,0.00,,,0.00,0,Wunderground v.1.15,2013-01-15 06:45:00,
2013-01-15 00:50:00,60.7,53.4,29.73,SE,135,7.0,-999.0,77,0.00,,,0.00,0,Wunderground v.1.15,2013-01-15 06:50:00,
2013-01-15 00:55:00,60.5,53.6,29.73,East,90,5.0,-999.0,78,0.00,,,0.00,0,Wunderground v.1.15,2013-01-15 06:55:00,
2013-01-15 01:00:00,60.4,53.5,29.73,SE,135,9.0,-999.0,78,0.00,,,0.00,0,Wunderground v.1.15,2013-01-15 07:00:00,
2013-01-15 01:05:00,60.4,53.5,29.73,SE,135,12.0,-999.0,78,0.00,,,0.00,0,Wunderground v.1.15,2013-01-15 07:05:00,
2013-01-15 01:10:00,60.2,53.3,29.73,SE,135,4.0,-999.0,78,0.00,,,0.00,0,Wunderground v.1.15,2013-01-15 07:10:00,
2013-01-15 01:15:00,60.0,53.5,29.72,SE,135,2.0,-999.0,79,0.00,,,0.00,0,Wunderground v.1.15,2013-01-15 07:15:00,
2013-01-15 01:20:00,59.7,53.2,29.72,SE,135,1.0,-999.0,79,0.00,,,0.00,0,Wunderground v.1.15,2013-01-15 07:20:00,
2013-01-15 01:25:00,59.4,53.2,29.72,ESE,113,2.0,-999.0,80,0.00,,,0.00,0,Wunderground v.1.15,2013-01-15 07:25:00,
2013-01-15 01:30:00,58.9,53.1,29.72,NNE,23,4.0,-999.0,81,0.00,,,0.00,0,Wunderground v.1.15,2013-01-15 07:30:00,
2013-01-15 01:35:00,59.2,53.4,29.72,SE,135,6.0,-999.0,81,0.00,,,0.00,0,Wunderground v.1.15,2013-01-15 07:35:00,
2013-01-15 01:40:00,59.3,53.1,29.72,SE,135,6.0,-999.0,80,0.00,,,0.00,0,Wunderground v.1.15,2013-01-15 07:40:00,
2013-01-15 01:45:00,59.4,53.2,29.72,SE,135,5.0,-999.0,80,0.00,,,0.00,0,Wunderground v.1.15,2013-01-15 07:45:00,
2013-01-15 01:50:00,59.6,53.4,29.71,SE,135,5.0,-999.0,80,0.00,,,0.00,0,Wunderground v.1.15,2013-01-15 07:50:00,
2013-01-15 01:55:00,59.4,53.2,29.71,NNE,23,2.0,-999.0,80,0.00,,,0.00,0,Wunderground v.1.15,2013-01-15 07:55:00,
2013-01-15 02:00:00,59.0,53.2,29.71,NE,45,2.0,-999.0,81,0.00,,,0.00,0,Wunderground v.1.15,2013-01-15 08:00:00,
2013-01-15 02:05:00,58.9,53.1,29.71,ENE,68,6.0,-999.0,81,0.00,,,0.00,0,Wunderground v.1.15,2013-01-15 08:05:00,
2013-01-15 02:10:00,58.9,53.7,29.71,NE,45,2.0,-999.0,83,0.00,,,0.00,0,Wunderground v.1.15,2013-01-15 08:10:00,
2013-01-15 02:15:00,58.9,54.1,29.72,SE,135,1.0,-999.0,84,0.00,,,0.00,0,Wunderground v.1.15,2013-01-15 08:15:00,
2013-01-15 02:20:00,58.5,54.0,29.72,SE,135,9.0,-999.0,85,0.00,,,0.00,0,Wunderground v.1.15,2013-01-15 08:20:00,
2013-01-15 02:25:00,58.3,53.8,29.71,SSE,158,3.0,-999.0,85,0.00,,,0.00,0,Wunderground v.1.15,2013-01-15 08:25:00,
2013-01-15 02:30:00,58.2,54.0,29.72,SSE,158,8.0,-999.0,86,0.00,,,0.00,0,Wunderground v.1.15,2013-01-15 08:30:00,
2013-01-15 02:35:00,58.2,54.0,29.72,SE,135,10.0,-999.0,86,0.00,,,0.00,0,Wunderground v.1.15,2013-01-15 08:35:00,
2013-01-15 02:40:00,58.3,53.8,29.73,SE,135,9.0,-999.0,85,0.00,,,0.00,0,Wunderground v.1.15,2013-01-15 08:40:00,
2013-01-15 02:45:00,58.4,53.9,29.72,SE,135,10.0,-999.0,85,0.00,,,0.00,0,Wunderground v.1.15,2013-01-15 08:45:00,
2013-01-15 02:50:00,58.4,53.9,29.73,SE,135,8.0,-999.0,85,0.00,,,0.00,0,Wunderground v.1.15,2013-01-15 08:50:00,
2013-01-15 02:55:00,58.4,54.2,29.73,SE,135,9.0,-999.0,86,0.00,,,0.00,0,Wunderground v.1.15,2013-01-15 08:55:00,
2013-01-15 03:00:00,58.1,54.2,29.73,SE,135,9.0,-999.0,87,0.00,,,0.00,0,Wunderground v.1.15,2013-01-15 09:00:00,
2013-01-15 03:05:00,58.0,54.2,29.72,SE,135,10.0,-999.0,87,0.00,,,0.00,0,Wunderground v.1.15,2013-01-15 09:05:00,
2013-01-15 03:10:00,58.0,53.8,29.73,SE,135,8.0,-999.0,86,0.00,,,0.00,0,Wunderground v.1.15,2013-01-15 09:10:00,
2013-01-15 03:15:00,58.0,53.8,29.73,SE,135,11.0,-999.0,86,0.00,,,0.00,0,Wunderground v.1.15,2013-01-15 09:15:00,
2013-01-15 03:20:00,58.1,53.9,29.72,SE,135,10.0,-999.0,86,0.00,,,0.00,0,Wunderground v.1.15,2013-01-15 09:20:00,
2013-01-15 03:25:00,58.2,53.7,29.73,SE,135,7.0,-999.0,85,0.00,,,0.00,0,Wunderground v.1.15,2013-01-15 09:25:00,
2013-01-15 03:30:00,58.2,53.7,29.72,SE,135,6.0,-999.0,85,0.00,,,0.00,0,Wunderground v.1.15,2013-01-15 09:30:00,
2013-01-15 03:35:00,58.2,53.4,29.72,SE,135,6.0,-999.0,84,0.00,,,0.00,0,Wunderground v.1.15,2013-01-15 09:35:00,
2013-01-15 03:40:00,58.2,53.7,29.73,SE,135,9.0,-999.0,85,0.00,,,0.00,0,Wunderground v.1.15,2013-01-15 09:40:00,
2013-01-15 03:45:00,58.1,53.6,29.73,SE,135,12.0,-999.0,85,0.00,,,0.00,0,Wunderground v.1.15,2013-01-15 09:45:00,
2013-01-15 03:50:00,58.0,53.8,29.73,SE,135,8.0,-999.0,86,0.00,,,0.00,0,Wunderground v.1.15,2013-01-15 09:50:00,
2013-01-15 03:55:00,57.9,53.7,29.73,SE,135,10.0,-999.0,86,0.00,,,0.00,0,Wunderground v.1.15,2013-01-15 09:55:00,
2013-01-15 04:00:00,57.8,53.6,29.73,SE,135,6.0,-999.0,86,0.00,,,0.00,0,Wunderground v.1.15,2013-01-15 10:00:00,
2013-01-15 04:05:00,57.6,53.8,29.73,SE,135,4.0,-999.0,87,0.00,,,0.00,0,Wunderground v.1.15,2013-01-15 10:05:00,
2013-01-15 04:10:00,57.5,53.7,29.73,SE,135,10.0,-999.0,87,0.00,,,0.00,0,Wunderground v.1.15,2013-01-15 10:10:00,
2013-01-15 04:15:00,57.5,54.0,29.73,SE,135,8.0,-999.0,88,0.00,,,0.00,0,Wunderground v.1.15,2013-01-15 10:15:00,
2013-01-15 04:20:00,57.4,53.9,29.73,ESE,113,5.0,-999.0,88,0.00,,,0.00,0,Wunderground v.1.15,2013-01-15 10:20:00,
2013-01-15 04:25:00,57.4,53.9,29.73,SE,135,4.0,-999.0,88,0.00,,,0.00,0,Wunderground v.1.15,2013-01-15 10:25:00,
2013-01-15 04:30:00,57.1,53.6,29.73,East,90,2.0,-999.0,88,0.00,,,0.00,0,Wunderground v.1.15,2013-01-15 10:30:00,
2013-01-15 04:35:00,56.9,53.7,29.73,ENE,68,3.0,-999.0,89,0.00,,,0.00,0,Wunderground v.1.15,2013-01-15 10:35:00,
2013-01-15 04:40:00,56.8,53.6,29.73,SE,135,6.0,-999.0,89,0.00,,,0.00,0,Wunderground v.1.15,2013-01-15 10:40:00,
2013-01-15 04:45:00,56.9,53.7,29.73,SSE,158,7.0,-999.0,89,0.00,,,0.00,0,Wunderground v.1.15,2013-01-15 10:45:00,
2013-01-15 04:50:00,57.0,53.8,29.73,SE,135,7.0,-999.0,89,0.00,,,0.00,0,Wunderground v.1.15,2013-01-15 10:50:00,
2013-01-15 04:55:00,57.0,53.5,29.73,SSE,158,9.0,-999.0,88,0.00,,,0.00,0,Wunderground v.1.15,2013-01-15 10:55:00,
2013-01-15 05:00:00,57.1,53.6,29.73,SE,135,9.0,-999.0,88,0.00,,,0.00,0,Wunderground v.1.15,2013-01-15 11:00:00,
2013-01-15 05:05:00,57.2,53.7,29.73,SE,135,9.0,-999.0,88,0.00,,,0.00,0,Wunderground v.1.15,2013-01-15 11:05:00,
2013-01-15 05:10:00,57.2,53.4,29.73,SSE,158,7.0,-999.0,87,0.00,,,0.00,0,Wunderground v.1.15,2013-01-15 11:10:00,
2013-01-15 05:15:00,57.1,53.3,29.73,SE,135,6.0,-999.0,87,0.00,,,0.00,0,Wunderground v.1.15,2013-01-15 11:15:00,
2013-01-15 05:20:00,57.1,53.3,29.72,SE,135,11.0,-999.0,87,0.00,,,0.00,0,Wunderground v.1.15,2013-01-15 11:20:00,
2013-01-15 05:25:00,57.2,53.0,29.73,SE,135,13.0,-999.0,86,0.00,,,0.00,0,Wunderground v.1.15,2013-01-15 11:25:00,
2013-01-15 05:30:00,57.4,52.9,29.72,SE,135,15.0,-999.0,85,0.00,,,0.00,0,Wunderground v.1.15,2013-01-15 11:30:00,
2013-01-15 05:35:00,57.5,52.7,29.73,SE,135,12.0,-999.0,84,0.00,,,0.00,0,Wunderground v.1.15,2013-01-15 11:35:00,
2013-01-15 05:40:00,57.7,52.9,29.73,SE,135,15.0,-999.0,84,0.00,,,0.00,0,Wunderground v.1.15,2013-01-15 11:40:00,
2013-01-15 05:45:00,57.7,52.9,29.73,SE,135,15.0,-999.0,84,0.00,,,0.00,0,Wunderground v.1.15,2013-01-15 11:45:00,
2013-01-15 05:50:00,57.7,52.9,29.73,SE,135,12.0,-999.0,84,0.00,,,0.00,0,Wunderground v.1.15,2013-01-15 11:50:00,
2013-01-15 05:55:00,57.7,52.9,29.74,SE,135,10.0,-999.0,84,0.00,,,0.00,0,Wunderground v.1.15,2013-01-15 11:55:00,
2013-01-15 06:00:00,57.8,52.7,29.74,SE,135,13.0,-999.0,83,0.00,,,0.00,3,Wunderground v.1.15,2013-01-15 12:00:00,
2013-01-15 06:05:00,57.9,52.8,29.75,SE,135,12.0,-999.0,83,0.00,,,0.00,7,Wunderground v.1.15,2013-01-15 12:05:00,
2013-01-15 06:10:00,57.9,52.8,29.75,SE,135,9.0,-999.0,83,0.00,,,0.00,9,Wunderground v.1.15,2013-01-15 12:10:00,
2013-01-15 06:15:00,57.8,52.7,29.75,SE,135,11.0,-999.0,83,0.00,,,0.00,11,Wunderground v.1.15,2013-01-15 12:15:00,
2013-01-15 06:20:00,57.6,52.5,29.74,SE,135,9.0,-999.0,83,0.00,,,0.00,14,Wunderground v.1.15,2013-01-15 12:20:00,
2013-01-15 06:25:00,57.6,52.5,29.75,SE,135,8.0,-999.0,83,0.00,,,0.00,15,Wunderground v.1.15,2013-01-15 12:25:00,
2013-01-15 06:30:00,57.6,52.5,29.75,SE,135,9.0,-999.0,83,0.00,,,0.00,16,Wunderground v.1.15,2013-01-15 12:30:00,
2013-01-15 06:35:00,57.6,52.5,29.75,SE,135,10.0,-999.0,83,0.00,,,0.00,28,Wunderground v.1.15,2013-01-15 12:35:00,
2013-01-15 06:40:00,57.8,52.7,29.75,East,90,7.0,-999.0,83,0.00,,,0.00,62,Wunderground v.1.15,2013-01-15 12:40:00,
2013-01-15 06:45:00,58.2,52.4,29.75,East,90,10.0,-999.0,81,0.00,,,0.00,79,Wunderground v.1.15,2013-01-15 12:45:00,
2013-01-15 06:55:00,58.9,53.1,29.75,East,90,6.0,-999.0,81,0.00,,,0.00,123,Wunderground v.1.15,2013-01-15 12:55:00,
2013-01-15 07:00:00,58.9,52.7,29.76,NE,45,7.0,-999.0,80,0.00,,,0.00,146,Wunderground v.1.15,2013-01-15 13:00:00,
2013-01-15 07:05:00,58.9,52.7,29.76,ENE,68,4.0,-999.0,80,0.00,,,0.00,170,Wunderground v.1.15,2013-01-15 13:05:00,
2013-01-15 07:10:00,58.9,52.7,29.76,NE,45,8.0,-999.0,80,0.00,,,0.00,194,Wunderground v.1.15,2013-01-15 13:10:00,
2013-01-15 07:15:00,58.9,53.1,29.76,NE,45,7.0,-999.0,81,0.00,,,0.00,217,Wunderground v.1.15,2013-01-15 13:15:00,
2013-01-15 07:20:00,58.9,53.1,29.76,ENE,68,3.0,-999.0,81,0.00,,,0.00,238,Wunderground v.1.15,2013-01-15 13:20:00,
2013-01-15 07:25:00,59.3,53.5,29.76,NE,45,2.0,-999.0,81,0.00,,,0.00,260,Wunderground v.1.15,2013-01-15 13:25:00,
2013-01-15 07:35:00,59.7,53.5,29.77,East,90,3.0,-999.0,80,0.00,,,0.00,300,Wunderground v.1.15,2013-01-15 13:35:00,
2013-01-15 07:40:00,59.8,53.6,29.77,NE,45,4.0,-999.0,80,0.00,,,0.00,320,Wunderground v.1.15,2013-01-15 13:40:00,
2013-01-15 07:45:00,59.6,53.8,29.77,NE,45,5.0,-999.0,81,0.00,,,0.00,340,Wunderground v.1.15,2013-01-15 13:45:00,
2013-01-15 07:50:00,59.8,54.0,29.77,ENE,68,7.0,-999.0,81,0.00,,,0.00,358,Wunderground v.1.15,2013-01-15 13:50:00,
2013-01-15 07:55:00,60.0,54.5,29.77,NE,45,5.0,-999.0,82,0.00,,,0.00,375,Wunderground v.1.15,2013-01-15 13:55:00,
2013-01-15 08:00:00,60.5,54.3,29.77,NE,45,6.0,-999.0,80,0.00,,,0.00,394,Wunderground v.1.15,2013-01-15 14:00:00,
2013-01-15 08:05:00,61.0,54.4,29.77,ENE,68,3.0,-999.0,79,0.00,,,0.00,412,Wunderground v.1.15,2013-01-15 14:05:00,
2013-01-15 08:10:00,61.5,54.9,29.78,ENE,68,6.0,-999.0,79,0.00,,,0.00,430,Wunderground v.1.15,2013-01-15 14:10:00,
2013-01-15 08:15:00,61.9,54.6,29.78,NE,45,4.0,-999.0,77,0.00,,,0.00,448,Wunderground v.1.15,2013-01-15 14:15:00,
2013-01-15 08:20:00,62.3,55.0,29.78,NE,45,6.0,-999.0,77,0.00,,,0.00,464,Wunderground v.1.15,2013-01-15 14:20:00,
2013-01-15 08:25:00,62.8,55.5,29.78,ENE,68,6.0,-999.0,77,0.00,,,0.00,481,Wunderground v.1.15,2013-01-15 14:25:00,
2013-01-15 08:30:00,63.5,55.4,29.78,SE,135,4.0,-999.0,75,0.00,,,0.00,496,Wunderground v.1.15,2013-01-15 14:30:00,
2013-01-15 08:35:00,63.8,55.7,29.78,ESE,113,3.0,-999.0,75,0.00,,,0.00,514,Wunderground v.1.15,2013-01-15 14:35:00,
2013-01-15 08:40:00,64.0,55.9,29.78,NE,45,4.0,-999.0,75,0.00,,,0.00,531,Wunderground v.1.15,2013-01-15 14:40:00,
2013-01-15 08:45:00,64.3,56.6,29.77,East,90,3.0,-999.0,76,0.00,,,0.00,547,Wunderground v.1.15,2013-01-15 14:45:00,
2013-01-15 08:50:00,64.2,55.7,29.77,ENE,68,7.0,-999.0,74,0.00,,,0.00,564,Wunderground v.1.15,2013-01-15 14:50:00,
2013-01-15 08:55:00,64.4,55.9,29.77,ENE,68,6.0,-999.0,74,0.00,,,0.00,578,Wunderground v.1.15,2013-01-15 14:55:00,
2013-01-15 09:05:00,65.3,56.4,29.77,East,90,4.0,-999.0,73,0.00,,,0.00,606,Wunderground v.1.15,2013-01-15 15:05:00,
2013-01-15 09:10:00,65.7,56.4,29.77,East,90,4.0,-999.0,72,0.00,,,0.00,622,Wunderground v.1.15,2013-01-15 15:10:00,
2013-01-15 09:20:00,65.7,56.0,29.77,ENE,68,7.0,-999.0,71,0.00,,,0.00,651,Wunderground v.1.15,2013-01-15 15:20:00,
2013-01-15 09:25:00,65.8,56.1,29.77,NE,45,5.0,-999.0,71,0.00,,,0.00,665,Wunderground v.1.15,2013-01-15 15:25:00,
2013-01-15 09:30:00,65.9,56.2,29.77,NE,45,5.0,-999.0,71,0.00,,,0.00,678,Wunderground v.1.15,2013-01-15 15:30:00,
2013-01-15 09:35:00,66.4,56.7,29.77,NE,45,4.0,-999.0,71,0.00,,,0.00,695,Wunderground v.1.15,2013-01-15 15:35:00,
2013-01-15 09:40:00,66.4,56.3,29.77,NE,45,6.0,-999.0,70,0.00,,,0.00,717,Wunderground v.1.15,2013-01-15 15:40:00,
2013-01-15 09:45:00,66.2,56.1,29.76,NE,45,7.0,-999.0,70,0.00,,,0.00,762,Wunderground v.1.15,2013-01-15 15:45:00,
2013-01-15 09:50:00,66.2,56.1,29.77,East,90,3.0,-999.0,70,0.00,,,0.00,275,Wunderground v.1.15,2013-01-15 15:50:00,
2013-01-15 09:55:00,66.5,56.8,29.77,ENE,68,2.0,-999.0,71,0.00,,,0.00,675,Wunderground v.1.15,2013-01-15 15:55:00,
2013-01-15 10:00:00,66.6,56.1,29.76,NE,45,3.0,-999.0,69,0.00,,,0.00,352,Wunderground v.1.15,2013-01-15 16:00:00,
2013-01-15 10:05:00,66.4,55.5,29.76,NE,45,7.0,-999.0,68,0.00,,,0.00,369,Wunderground v.1.15,2013-01-15 16:05:00,
2013-01-15 10:10:00,66.2,55.7,29.77,NE,45,6.0,-999.0,69,0.00,,,0.00,336,Wunderground v.1.15,2013-01-15 16:10:00,
2013-01-15 10:15:00,66.4,56.3,29.76,NE,45,5.0,-999.0,70,0.00,,,0.00,465,Wunderground v.1.15,2013-01-15 16:15:00,
2013-01-15 10:20:00,66.5,56.0,29.76,NE,45,4.0,-999.0,69,0.00,,,0.00,327,Wunderground v.1.15,2013-01-15 16:20:00,
2013-01-15 10:25:00,66.4,56.7,29.76,NE,45,3.0,-999.0,71,0.00,,,0.00,321,Wunderground v.1.15,2013-01-15 16:25:00,
2013-01-15 10:30:00,67.1,57.4,29.76,NE,45,5.0,-999.0,71,0.00,,,0.00,808,Wunderground v.1.15,2013-01-15 16:30:00,
2013-01-15 10:35:00,68.0,57.8,29.75,NE,45,2.0,-999.0,70,0.00,,,0.00,808,Wunderground v.1.15,2013-01-15 16:35:00,
2013-01-15 10:40:00,68.6,57.6,29.75,ENE,68,3.0,-999.0,68,0.00,,,0.00,815,Wunderground v.1.15,2013-01-15 16:40:00,
2013-01-15 10:45:00,69.2,57.8,29.75,NE,45,4.0,-999.0,67,0.00,,,0.00,820,Wunderground v.1.15,2013-01-15 16:45:00,
2013-01-15 10:50:00,69.2,56.5,29.75,ESE,113,4.0,-999.0,64,0.00,,,0.00,826,Wunderground v.1.15,2013-01-15 16:50:00,
2013-01-15 10:55:00,69.7,57.4,29.75,East,90,3.0,-999.0,65,0.00,,,0.00,834,Wunderground v.1.15,2013-01-15 16:55:00,
2013-01-15 11:00:00,70.0,57.3,29.74,East,90,3.0,-999.0,64,0.00,,,0.00,842,Wunderground v.1.15,2013-01-15 17:00:00,
2013-01-15 11:05:00,69.9,56.7,29.74,ENE,68,3.0,-999.0,63,0.00,,,0.00,846,Wunderground v.1.15,2013-01-15 17:05:00,
2013-01-15 11:10:00,69.9,57.2,29.74,ENE,68,3.0,-999.0,64,0.00,,,0.00,852,Wunderground v.1.15,2013-01-15 17:10:00,
2013-01-15 11:15:00,70.1,56.5,29.74,North,0,4.0,-999.0,62,0.00,,,0.00,849,Wunderground v.1.15,2013-01-15 17:15:00,
2013-01-15 11:20:00,69.2,56.1,29.73,North,0,9.0,-999.0,63,0.00,,,0.00,846,Wunderground v.1.15,2013-01-15 17:20:00,
2013-01-15 11:25:00,68.7,56.0,29.73,North,0,8.0,-999.0,64,0.00,,,0.00,869,Wunderground v.1.15,2013-01-15 17:25:00,
2013-01-15 11:30:00,68.5,56.3,29.73,North,0,10.0,-999.0,65,0.00,,,0.00,904,Wunderground v.1.15,2013-01-15 17:30:00,
2013-01-15 11:35:00,68.6,56.8,29.73,North,0,7.0,-999.0,66,0.00,,,0.00,914,Wunderground v.1.15,2013-01-15 17:35:00,
2013-01-15 11:40:00,69.1,56.4,29.73,NNE,23,7.0,-999.0,64,0.00,,,0.00,934,Wunderground v.1.15,2013-01-15 17:40:00,
2013-01-15 11:45:00,68.8,56.6,29.72,North,0,7.0,-999.0,65,0.00,,,0.00,748,Wunderground v.1.15,2013-01-15 17:45:00,
2013-01-15 11:50:00,68.5,56.7,29.72,North,0,9.0,-999.0,66,0.00,,,0.00,534,Wunderground v.1.15,2013-01-15 17:50:00,
2013-01-15 11:55:00,68.2,57.6,29.72,ENE,68,5.0,-999.0,69,0.00,,,0.00,316,Wunderground v.1.15,2013-01-15 17:55:00,
2013-01-15 12:00:00,68.9,58.3,29.72,NNE,23,5.0,-999.0,69,0.00,,,0.00,936,Wunderground v.1.15,2013-01-15 18:00:00,
2013-01-15 12:05:00,69.8,58.3,29.72,NE,45,3.0,-999.0,67,0.00,,,0.00,901,Wunderground v.1.15,2013-01-15 18:05:00,
2013-01-15 12:10:00,70.0,58.5,29.72,East,90,5.0,-999.0,67,0.00,,,0.00,894,Wunderground v.1.15,2013-01-15 18:10:00,
2013-01-15 12:15:00,69.2,58.2,29.71,NE,45,9.0,-999.0,68,0.00,,,0.00,892,Wunderground v.1.15,2013-01-15 18:15:00,
2013-01-15 12:20:00,68.8,57.8,29.71,NE,45,9.0,-999.0,68,0.00,,,0.00,976,Wunderground v.1.15,2013-01-15 18:20:00,
2013-01-15 12:25:00,68.6,58.0,29.71,East,90,9.0,-999.0,69,0.00,,,0.00,885,Wunderground v.1.15,2013-01-15 18:25:00,
2013-01-15 12:30:00,68.3,57.7,29.71,East,90,7.0,-999.0,69,0.00,,,0.00,554,Wunderground v.1.15,2013-01-15 18:30:00,
2013-01-15 12:35:00,68.2,57.6,29.71,East,90,6.0,-999.0,69,0.00,,,0.00,637,Wunderground v.1.15,2013-01-15 18:35:00,
2013-01-15 12:40:00,68.0,57.4,29.71,ENE,68,7.0,-999.0,69,0.00,,,0.00,353,Wunderground v.1.15,2013-01-15 18:40:00,
2013-01-15 12:45:00,68.3,57.7,29.71,East,90,6.0,-999.0,69,0.00,,,0.00,964,Wunderground v.1.15,2013-01-15 18:45:00,
2013-01-15 12:50:00,68.2,57.6,29.70,ENE,68,7.0,-999.0,69,0.00,,,0.00,911,Wunderground v.1.15,2013-01-15 18:50:00,
2013-01-15 12:55:00,68.5,57.5,29.70,NE,45,8.0,-999.0,68,0.00,,,0.00,903,Wunderground v.1.15,2013-01-15 18:55:00,
2013-01-15 13:00:00,68.3,57.3,29.70,NE,45,6.0,-999.0,68,0.00,,,0.00,324,Wunderground v.1.15,2013-01-15 19:00:00,
2013-01-15 13:05:00,68.7,57.7,29.69,ENE,68,4.0,-999.0,68,0.00,,,0.00,834,Wunderground v.1.15,2013-01-15 19:05:00,
2013-01-15 13:10:00,68.9,57.9,29.69,ENE,68,7.0,-999.0,68,0.00,,,0.00,831,Wunderground v.1.15,2013-01-15 19:10:00,
2013-01-15 13:15:00,68.7,57.7,29.69,East,90,8.0,-999.0,68,0.00,,,0.00,833,Wunderground v.1.15,2013-01-15 19:15:00,
2013-01-15 13:20:00,68.9,57.9,29.69,ENE,68,5.0,-999.0,68,0.00,,,0.00,823,Wunderground v.1.15,2013-01-15 19:20:00,
2013-01-15 13:25:00,69.1,57.7,29.69,East,90,6.0,-999.0,67,0.00,,,0.00,819,Wunderground v.1.15,2013-01-15 19:25:00,
2013-01-15 13:30:00,68.7,57.7,29.69,NE,45,6.0,-999.0,68,0.00,,,0.00,821,Wunderground v.1.15,2013-01-15 19:30:00,
2013-01-15 13:35:00,68.6,58.0,29.68,NNE,23,4.0,-999.0,69,0.00,,,0.00,771,Wunderground v.1.15,2013-01-15 19:35:00,
2013-01-15 13:40:00,68.3,57.7,29.69,NE,45,8.0,-999.0,69,0.00,,,0.00,743,Wunderground v.1.15,2013-01-15 19:40:00,
2013-01-15 13:45:00,68.3,57.3,29.69,ENE,68,4.0,-999.0,68,0.00,,,0.00,737,Wunderground v.1.15,2013-01-15 19:45:00,
2013-01-15 13:50:00,68.2,57.2,29.69,North,0,6.0,-999.0,68,0.00,,,0.00,738,Wunderground v.1.15,2013-01-15 19:50:00,
2013-01-15 13:55:00,68.2,57.2,29.69,North,0,5.0,-999.0,68,0.00,,,0.00,773,Wunderground v.1.15,2013-01-15 19:55:00,
2013-01-15 14:00:00,68.4,57.0,29.69,East,90,4.0,-999.0,67,0.00,,,0.00,749,Wunderground v.1.15,2013-01-15 20:00:00,
2013-01-15 14:05:00,68.1,56.7,29.69,ESE,113,5.0,-999.0,67,0.00,,,0.00,738,Wunderground v.1.15,2013-01-15 20:05:00,
2013-01-15 14:10:00,68.0,57.4,29.69,East,90,3.0,-999.0,69,0.00,,,0.00,691,Wunderground v.1.15,2013-01-15 20:10:00,
2013-01-15 14:15:00,68.2,57.2,29.69,NNE,23,5.0,-999.0,68,0.00,,,0.00,685,Wunderground v.1.15,2013-01-15 20:15:00,
2013-01-15 14:20:00,67.9,56.9,29.69,East,90,6.0,-999.0,68,0.00,,,0.00,593,Wunderground v.1.15,2013-01-15 20:20:00,
2013-01-15 14:25:00,67.6,56.7,29.69,ESE,113,5.0,-999.0,68,0.00,,,0.00,332,Wunderground v.1.15,2013-01-15 20:25:00,
2013-01-15 14:30:00,67.4,56.9,29.69,East,90,6.0,-999.0,69,0.00,,,0.00,632,Wunderground v.1.15,2013-01-15 20:30:00,
2013-01-15 14:35:00,67.2,57.1,29.69,ENE,68,5.0,-999.0,70,0.00,,,0.00,599,Wunderground v.1.15,2013-01-15 20:35:00,
2013-01-15 14:40:00,67.1,57.0,29.69,NE,45,7.0,-999.0,70,0.00,,,0.00,589,Wunderground v.1.15,2013-01-15 20:40:00,
2013-01-15 14:45:00,67.2,57.1,29.68,NE,45,7.0,-999.0,70,0.00,,,0.00,617,Wunderground v.1.15,2013-01-15 20:45:00,
2013-01-15 14:50:00,67.3,56.8,29.68,NE,45,7.0,-999.0,69,0.00,,,0.00,457,Wunderground v.1.15,2013-01-15 20:50:00,
2013-01-15 14:55:00,67.2,57.1,29.68,NE,45,7.0,-999.0,70,0.00,,,0.00,551,Wunderground v.1.15,2013-01-15 20:55:00,
2013-01-15 15:00:00,67.2,57.1,29.68,NE,45,8.0,-999.0,70,0.00,,,0.00,523,Wunderground v.1.15,2013-01-15 21:00:00,
2013-01-15 15:05:00,67.1,57.0,29.68,NE,45,8.0,-999.0,70,0.00,,,0.00,512,Wunderground v.1.15,2013-01-15 21:05:00,
2013-01-15 15:10:00,66.9,57.2,29.68,NE,45,7.0,-999.0,71,0.00,,,0.00,498,Wunderground v.1.15,2013-01-15 21:10:00,
2013-01-15 15:15:00,67.1,57.4,29.68,North,0,4.0,-999.0,71,0.00,,,0.00,476,Wunderground v.1.15,2013-01-15 21:15:00,
2013-01-15 15:20:00,67.1,57.4,29.68,NE,45,5.0,-999.0,71,0.00,,,0.00,460,Wunderground v.1.15,2013-01-15 21:20:00,
2013-01-15 15:25:00,67.1,57.4,29.67,NE,45,7.0,-999.0,71,0.00,,,0.00,441,Wunderground v.1.15,2013-01-15 21:25:00,
2013-01-15 15:30:00,67.1,57.4,29.67,ENE,68,6.0,-999.0,71,0.00,,,0.00,419,Wunderground v.1.15,2013-01-15 21:30:00,
2013-01-15 15:35:00,67.1,57.4,29.68,NE,45,5.0,-999.0,71,0.00,,,0.00,403,Wunderground v.1.15,2013-01-15 21:35:00,
2013-01-15 15:40:00,66.9,57.2,29.68,NE,45,7.0,-999.0,71,0.00,,,0.00,384,Wunderground v.1.15,2013-01-15 21:40:00,
2013-01-15 15:45:00,66.7,57.4,29.68,ENE,68,8.0,-999.0,72,0.00,,,0.00,365,Wunderground v.1.15,2013-01-15 21:45:00,
2013-01-15 15:50:00,66.4,56.7,29.68,NE,45,8.0,-999.0,71,0.00,,,0.00,351,Wunderground v.1.15,2013-01-15 21:50:00,
2013-01-15 15:55:00,66.3,57.0,29.68,NE,45,8.0,-999.0,72,0.00,,,0.00,329,Wunderground v.1.15,2013-01-15 21:55:00,
2013-01-15 16:00:00,66.2,57.3,29.68,NNE,23,7.0,-999.0,73,0.00,,,0.00,307,Wunderground v.1.15,2013-01-15 22:00:00,
2013-01-15 16:05:00,66.1,56.8,29.68,NE,45,8.0,-999.0,72,0.00,,,0.00,289,Wunderground v.1.15,2013-01-15 22:05:00,
2013-01-15 16:10:00,66.2,57.3,29.68,NE,45,6.0,-999.0,73,0.00,,,0.00,261,Wunderground v.1.15,2013-01-15 22:10:00,
2013-01-15 16:15:00,66.1,57.2,29.68,NE,45,7.0,-999.0,73,0.00,,,0.00,239,Wunderground v.1.15,2013-01-15 22:15:00,
2013-01-15 16:20:00,65.9,57.0,29.69,East,90,6.0,-999.0,73,0.00,,,0.00,230,Wunderground v.1.15,2013-01-15 22:20:00,
2013-01-15 16:25:00,65.6,57.1,29.68,ENE,68,7.0,-999.0,74,0.00,,,0.00,212,Wunderground v.1.15,2013-01-15 22:25:00,
2013-01-15 16:30:00,65.4,57.3,29.68,ENE,68,5.0,-999.0,75,0.00,,,0.00,153,Wunderground v.1.15,2013-01-15 22:30:00,
2013-01-15 16:35:00,65.2,57.4,29.68,ESE,104,5.0,5.0,76,0.00,,,0.00,33,Wunderground v.1.15,2013-01-15 22:35:00,
2013-01-15 16:40:00,65.1,57.3,29.69,East,90,4.0,-999.0,76,0.00,,,0.00,36,Wunderground v.1.15,2013-01-15 22:40:00,
2013-01-15 16:45:00,64.8,57.1,29.69,ENE,68,6.0,-999.0,76,0.00,,,0.00,32,Wunderground v.1.15,2013-01-15 22:45:00,
2013-01-15 16:50:00,64.6,57.2,29.69,ENE,68,6.0,-999.0,77,0.00,,,0.00,32,Wunderground v.1.15,2013-01-15 22:50:00,
2013-01-15 16:55:00,64.4,57.4,29.69,East,90,4.0,-999.0,78,0.00,,,0.00,29,Wunderground v.1.15,2013-01-15 22:55:00,
2013-01-15 17:00:00,64.2,57.2,29.69,ENE,68,4.0,-999.0,78,0.00,,,0.00,28,Wunderground v.1.15,2013-01-15 23:00:00,
2013-01-15 17:05:00,64.1,57.1,29.69,NE,45,7.0,-999.0,78,0.00,,,0.00,24,Wunderground v.1.15,2013-01-15 23:05:00,
2013-01-15 17:10:00,63.9,56.9,29.69,NE,45,7.0,-999.0,78,0.00,,,0.00,22,Wunderground v.1.15,2013-01-15 23:10:00,
2013-01-15 17:15:00,63.8,57.2,29.70,NE,45,5.0,-999.0,79,0.00,,,0.00,18,Wunderground v.1.15,2013-01-15 23:15:00,
2013-01-15 17:20:00,63.6,57.0,29.70,ENE,68,4.0,-999.0,79,0.00,,,0.00,17,Wunderground v.1.15,2013-01-15 23:20:00,
2013-01-15 17:25:00,63.4,57.1,29.70,ENE,68,6.0,-999.0,80,0.00,,,0.00,12,Wunderground v.1.15,2013-01-15 23:25:00,
2013-01-15 17:30:00,63.1,57.2,29.70,ENE,68,6.0,-999.0,81,0.00,,,0.00,9,Wunderground v.1.15,2013-01-15 23:30:00,
2013-01-15 17:35:00,62.9,57.0,29.70,NE,45,3.0,-999.0,81,0.00,,,0.00,6,Wunderground v.1.15,2013-01-15 23:35:00,
2013-01-15 17:40:00,62.7,57.1,29.70,NE,45,1.0,-999.0,82,0.00,,,0.00,0,Wunderground v.1.15,2013-01-15 23:40:00,
2013-01-15 17:45:00,62.5,56.9,29.70,NNE,23,2.0,-999.0,82,0.00,,,0.00,0,Wunderground v.1.15,2013-01-15 23:45:00,
2013-01-15 17:50:00,62.4,56.8,29.70,NE,45,2.0,-999.0,82,0.00,,,0.00,0,Wunderground v.1.15,2013-01-15 23:50:00,
2013-01-15 17:55:00,62.4,56.8,29.71,East,90,0.0,-999.0,82,0.00,,,0.00,0,Wunderground v.1.15,2013-01-15 23:55:00,
2013-01-15 18:00:00,62.1,56.9,29.71,NNE,23,2.0,-999.0,83,0.00,,,0.00,0,Wunderground v.1.15,2013-01-16 00:00:00,
2013-01-15 18:05:00,61.8,56.9,29.71,NE,45,4.0,-999.0,84,0.00,,,0.00,0,Wunderground v.1.15,2013-01-16 00:05:00,
2013-01-15 18:10:00,61.7,56.8,29.71,SSW,203,1.0,-999.0,84,0.00,,,0.00,0,Wunderground v.1.15,2013-01-16 00:10:00,
2013-01-15 18:15:00,61.7,56.5,29.71,SSE,158,3.0,-999.0,83,0.00,,,0.00,0,Wunderground v.1.15,2013-01-16 00:15:00,
2013-01-15 18:20:00,61.7,56.5,29.72,SE,135,3.0,-999.0,83,0.00,,,0.00,0,Wunderground v.1.15,2013-01-16 00:20:00,
2013-01-15 18:25:00,61.5,56.6,29.72,North,0,1.0,-999.0,84,0.00,,,0.00,0,Wunderground v.1.15,2013-01-16 00:25:00,
2013-01-15 18:30:00,61.2,56.3,29.72,NW,315,3.0,-999.0,84,0.00,,,0.00,0,Wunderground v.1.15,2013-01-16 00:30:00,
2013-01-15 18:35:00,61.0,56.8,29.72,North,0,2.0,-999.0,86,0.00,,,0.00,0,Wunderground v.1.15,2013-01-16 00:35:00,
2013-01-15 18:40:00,60.9,56.7,29.72,North,0,1.0,-999.0,86,0.00,,,0.00,0,Wunderground v.1.15,2013-01-16 00:40:00,
2013-01-15 18:45:00,60.8,56.6,29.72,NNW,338,0.0,-999.0,86,0.00,,,0.00,0,Wunderground v.1.15,2013-01-16 00:45:00,
2013-01-15 18:50:00,60.7,56.5,29.72,NNW,338,2.0,-999.0,86,0.00,,,0.00,0,Wunderground v.1.15,2013-01-16 00:50:00,
2013-01-15 18:55:00,60.6,56.4,29.72,NE,45,3.0,-999.0,86,0.00,,,0.00,0,Wunderground v.1.15,2013-01-16 00:55:00,
2013-01-15 19:00:00,60.6,56.7,29.72,ESE,113,3.0,-999.0,87,0.00,,,0.00,0,Wunderground v.1.15,2013-01-16 01:00:00,
2013-01-15 19:05:00,60.6,56.7,29.73,East,90,2.0,-999.0,87,0.00,,,0.00,0,Wunderground v.1.15,2013-01-16 01:05:00,
2013-01-15 19:10:00,60.5,56.6,29.73,South,180,2.0,-999.0,87,0.00,,,0.00,0,Wunderground v.1.15,2013-01-16 01:10:00,
2013-01-15 19:15:00,60.6,56.4,29.73,NNE,23,2.0,-999.0,86,0.00,,,0.00,0,Wunderground v.1.15,2013-01-16 01:15:00,
2013-01-15 19:20:00,60.5,56.3,29.73,NNE,23,0.0,-999.0,86,0.00,,,0.00,0,Wunderground v.1.15,2013-01-16 01:20:00,
2013-01-15 19:25:00,60.5,56.3,29.73,NNE,23,1.0,-999.0,86,0.00,,,0.00,0,Wunderground v.1.15,2013-01-16 01:25:00,
2013-01-15 19:30:00,60.5,56.3,29.73,SE,135,4.0,-999.0,86,0.00,,,0.00,0,Wunderground v.1.15,2013-01-16 01:30:00,
2013-01-15 19:35:00,60.6,56.4,29.73,East,90,2.0,-999.0,86,0.00,,,0.00,0,Wunderground v.1.15,2013-01-16 01:35:00,
2013-01-15 19:40:00,60.4,56.2,29.74,NNW,338,2.0,-999.0,86,0.00,,,0.00,0,Wunderground v.1.15,2013-01-16 01:40:00,
2013-01-15 19:45:00,60.3,56.1,29.74,NNW,338,0.0,-999.0,86,0.00,,,0.00,0,Wunderground v.1.15,2013-01-16 01:45:00,
2013-01-15 19:50:00,60.2,56.0,29.73,SSE,158,3.0,-999.0,86,0.00,,,0.00,0,Wunderground v.1.15,2013-01-16 01:50:00,
2013-01-15 19:55:00,60.3,55.8,29.74,SSE,158,2.0,-999.0,85,0.00,,,0.00,0,Wunderground v.1.15,2013-01-16 01:55:00,
2013-01-15 20:00:00,60.3,55.8,29.74,N/A,-737280,0.0,-999.0,85,0.00,,,0.00,0,Wunderground v.1.15,2013-01-16 02:00:00,
2013-01-15 20:05:00,60.3,56.1,29.74,SSE,158,1.0,-999.0,86,0.00,,,0.00,0,Wunderground v.1.15,2013-01-16 02:05:00,
2013-01-15 20:10:00,60.3,56.1,29.75,South,180,2.0,-999.0,86,0.00,,,0.00,0,Wunderground v.1.15,2013-01-16 02:10:00,
2013-01-15 20:15:00,60.5,56.0,29.75,East,90,3.0,-999.0,85,0.00,,,0.00,0,Wunderground v.1.15,2013-01-16 02:15:00,
2013-01-15 20:20:00,60.4,56.2,29.74,SE,135,2.0,-999.0,86,0.00,,,0.00,0,Wunderground v.1.15,2013-01-16 02:20:00,
2013-01-15 20:25:00,60.3,56.1,29.75,East,90,2.0,-999.0,86,0.00,,,0.00,0,Wunderground v.1.15,2013-01-16 02:25:00,
2013-01-15 20:30:00,60.5,56.0,29.75,East,90,5.0,-999.0,85,0.00,,,0.00,0,Wunderground v.1.15,2013-01-16 02:30:00,
2013-01-15 20:35:00,60.6,56.1,29.75,SE,135,4.0,-999.0,85,0.00,,,0.00,0,Wunderground v.1.15,2013-01-16 02:35:00,
2013-01-15 20:40:00,60.4,55.9,29.74,SE,135,1.0,-999.0,85,0.00,,,0.00,0,Wunderground v.1.15,2013-01-16 02:40:00,
2013-01-15 20:45:00,60.3,55.8,29.75,SE,135,1.0,-999.0,85,0.00,,,0.00,0,Wunderground v.1.15,2013-01-16 02:45:00,
2013-01-15 20:50:00,60.1,55.9,29.74,SSE,158,2.0,-999.0,86,0.00,,,0.00,0,Wunderground v.1.15,2013-01-16 02:50:00,
2013-01-15 20:55:00,59.9,55.7,29.74,East,90,0.0,-999.0,86,0.00,,,0.00,0,Wunderground v.1.15,2013-01-16 02:55:00,
2013-01-15 21:00:00,59.8,55.6,29.74,SE,135,2.0,-999.0,86,0.00,,,0.00,0,Wunderground v.1.15,2013-01-16 03:00:00,
2013-01-15 21:05:00,59.7,55.5,29.75,SSE,158,2.0,-999.0,86,0.00,,,0.00,0,Wunderground v.1.15,2013-01-16 03:05:00,
2013-01-15 21:10:00,59.7,55.5,29.75,SSE,158,3.0,-999.0,86,0.00,,,0.00,0,Wunderground v.1.15,2013-01-16 03:10:00,
2013-01-15 21:15:00,59.7,55.5,29.75,SE,135,2.0,-999.0,86,0.00,,,0.00,0,Wunderground v.1.15,2013-01-16 03:15:00,
2013-01-15 21:20:00,59.6,55.4,29.74,ESE,113,3.0,-999.0,86,0.00,,,0.00,0,Wunderground v.1.15,2013-01-16 03:20:00,
2013-01-15 21:25:00,59.7,55.2,29.75,SE,135,3.0,-999.0,85,0.00,,,0.00,0,Wunderground v.1.15,2013-01-16 03:25:00,
2013-01-15 21:30:00,59.7,55.2,29.75,SSE,158,0.0,-999.0,85,0.00,,,0.00,0,Wunderground v.1.15,2013-01-16 03:30:00,
2013-01-15 21:35:00,59.5,55.0,29.75,SSE,158,0.0,-999.0,85,0.00,,,0.00,0,Wunderground v.1.15,2013-01-16 03:35:00,
2013-01-15 21:40:00,59.3,54.8,29.75,WSW,248,1.0,-999.0,85,0.00,,,0.00,0,Wunderground v.1.15,2013-01-16 03:40:00,
2013-01-15 21:45:00,59.1,54.6,29.75,WSW,248,0.0,-999.0,85,0.00,,,0.00,0,Wunderground v.1.15,2013-01-16 03:45:00,
2013-01-15 21:50:00,59.0,54.2,29.75,WSW,248,0.0,-999.0,84,0.00,,,0.00,0,Wunderground v.1.15,2013-01-16 03:50:00,
2013-01-15 21:55:00,58.9,54.1,29.75,N/A,-737280,0.0,-999.0,84,0.00,,,0.00,0,Wunderground v.1.15,2013-01-16 03:55:00,
2013-01-15 22:00:00,58.9,53.7,29.75,WSW,248,0.0,-999.0,83,0.00,,,0.00,0,Wunderground v.1.15,2013-01-16 04:00:00,
2013-01-15 22:05:00,58.9,53.7,29.75,WSW,248,0.0,-999.0,83,0.00,,,0.00,0,Wunderground v.1.15,2013-01-16 04:05:00,
2013-01-15 22:10:00,58.9,53.7,29.75,WSW,248,1.0,-999.0,83,0.00,,,0.00,0,Wunderground v.1.15,2013-01-16 04:10:00,
2013-01-15 22:15:00,58.6,53.5,29.75,WSW,248,1.0,-999.0,83,0.00,,,0.00,0,Wunderground v.1.15,2013-01-16 04:15:00,
2013-01-15 22:20:00,58.5,54.0,29.75,SSE,158,1.0,-999.0,85,0.00,,,0.00,0,Wunderground v.1.15,2013-01-16 04:20:00,
2013-01-15 22:25:00,58.5,54.3,29.75,ESE,113,3.0,-999.0,86,0.00,,,0.00,0,Wunderground v.1.15,2013-01-16 04:25:00,
2013-01-15 22:30:00,58.3,53.8,29.75,SE,135,2.0,-999.0,85,0.00,,,0.00,0,Wunderground v.1.15,2013-01-16 04:30:00,
2013-01-15 22:35:00,58.5,54.3,29.75,SE,135,4.0,-999.0,86,0.00,,,0.00,0,Wunderground v.1.15,2013-01-16 04:35:00,
2013-01-15 22:40:00,58.5,54.3,29.74,SE,135,2.0,-999.0,86,0.00,,,0.00,0,Wunderground v.1.15,2013-01-16 04:40:00,
2013-01-15 22:45:00,58.4,53.9,29.74,ESE,113,2.0,-999.0,85,0.00,,,0.00,0,Wunderground v.1.15,2013-01-16 04:45:00,
2013-01-15 22:50:00,58.4,53.3,29.73,ESE,113,1.0,-999.0,83,0.00,,,0.00,0,Wunderground v.1.15,2013-01-16 04:50:00,
2013-01-15 22:55:00,58.3,53.2,29.73,SSW,203,2.0,-999.0,83,0.00,,,0.00,0,Wunderground v.1.15,2013-01-16 04:55:00,
2013-01-15 23:00:00,58.5,53.0,29.73,East,90,1.0,-999.0,82,0.00,,,0.00,0,Wunderground v.1.15,2013-01-16 05:00:00,
2013-01-15 23:05:00,58.7,52.5,29.73,East,90,1.0,-999.0,80,0.00,,,0.00,0,Wunderground v.1.15,2013-01-16 05:05:00,
2013-01-15 23:10:00,58.6,52.1,29.73,SSE,158,1.0,-999.0,79,0.00,,,0.00,0,Wunderground v.1.15,2013-01-16 05:10:00,
2013-01-15 23:15:00,58.9,52.4,29.73,ENE,68,2.0,-999.0,79,0.00,,,0.00,0,Wunderground v.1.15,2013-01-16 05:15:00,
2013-01-15 23:20:00,58.9,51.7,29.73,SE,135,2.0,-999.0,77,0.00,,,0.00,0,Wunderground v.1.15,2013-01-16 05:20:00,
2013-01-15 23:25:00,58.6,51.4,29.72,SE,135,0.0,-999.0,77,0.00,,,0.00,0,Wunderground v.1.15,2013-01-16 05:25:00,
2013-01-15 23:30:00,58.3,51.5,29.72,SE,135,0.0,-999.0,78,0.00,,,0.00,0,Wunderground v.1.15,2013-01-16 05:30:00,
2013-01-15 23:35:00,57.9,50.7,29.72,SSW,203,1.0,-999.0,77,0.00,,,0.00,0,Wunderground v.1.15,2013-01-16 05:35:00,
2013-01-15 23:40:00,57.8,50.3,29.72,SSW,203,0.0,-999.0,76,0.00,,,0.00,0,Wunderground v.1.15,2013-01-16 05:40:00,
2013-01-15 23:45:00,57.9,49.7,29.72,SSW,203,0.0,-999.0,74,0.00,,,0.00,0,Wunderground v.1.15,2013-01-16 05:45:00,
2013-01-15 23:50:00,58.1,49.5,29.72,SSW,203,0.0,-999.0,73,0.00,,,0.00,0,Wunderground v.1.15,2013-01-16 05:50:00,
2013-01-15 23:55:00,58.0,49.4,29.72,N/A,-737280,0.0,-999.0,73,0.00,,,0.00,0,Wunderground v.1.15,2013-01-16 05:55:00,